Regional Weather Roundup
Issued by NWS Sioux Falls, SD

Home | Current Version | Previous Version | Graphics & Text | Print | Product List | Glossary On
Versions: 1 2 3 4 5 6 7 8 9 10 11 12 13 14 15 16 17 18 19 20 21 22 23 24 25 26 27 28 29 30 31 32 33 34 35 36 37 38 39 40 41 42 43 44 45 46 47 48 49 50
000
ASUS43 KFSD 241302
RWRFSD

WEATHER ROUNDUP FOR SE SOUTH DAKOTA/SW MINNESOTA/NW IOWA
NATIONAL WEATHER SERVICE SIOUX FALLS SD
700 AM CST FRI FEB 24 2017

NOTE: "FAIR" INDICATES FEW OR NO CLOUDS BELOW 12,000 FEET WITH NO
SIGNIFICANT WEATHER AND OR OBSTRUCTIONS TO VISIBILITY.


SDZ038>040-050-052>070-241400-
SOUTHEAST SOUTH DAKOTA

CITY           SKY/WX    TMP DP  RH WIND       PRES   REMARKS
BROOKINGS      CLOUDY    19  13  77 N18G26    29.90R WCI   4
CHAMBERLAIN    CLOUDY    22  16  76 N16G23    30.02R WCI   9
HURON          CLOUDY    20  13  74 N24G33    30.00R WCI   3
MADISON        CLOUDY    18  18 100 N26G36    29.90R WCI  -1
MITCHELL       CLOUDY    22  16  78 N22G32    29.98R WCI   6
SIOUX FALLS    LGT SNOW  21  17  84 N26G33    29.87R FOG     WCI   4
WINNER         CLOUDY    20  15  81 N10       30.02R WCI   9
YANKTON        CLOUDY   N/A N/A N/A N22       29.89R
$$

MNZ071-072-080-081-089-090-097-098-241400-
SOUTHWEST MINNESOTA

CITY           SKY/WX    TMP DP  RH WIND       PRES   REMARKS
FAIRMONT       MIX PCPN  23  20  88 N24       29.76R FOG     WCI   7
JACKSON        LGT SNOW  23  19  86 VRB21G26  29.79R WCI   8
LUVERNE        CLOUDY    23  18  80 N22G36    29.85R HAZE    WCI   8
MARSHALL       CLOUDY    21  15  78 N21G28    29.91R WCI   5
MONTEVIDEO     CLOUDY    21  16  79 NE18      29.96R WCI   6
PIPESTONE      CLOUDY    21  14  73 NE20G31   29.85R WCI   6
REDWOOD FALLS  CLOUDY    24  13  62 N13G23    29.88R WCI  12
TRACY          CLOUDY    23  17  75 N23G30    29.88R WCI   8
WINDOM         CLOUDY    21  18  86 N25       29.81R WCI   4
WORTHINGTON    LGT SNOW  21  18  86 N26G33    29.81R FOG     WCI   4
$$

IAZ001>003-012>014-020>022-031-032-NEZ013-014-SDZ071-241400-
NORTHWEST IOWA

CITY           SKY/WX    TMP DP  RH WIND       PRES   REMARKS
CHEROKEE       LGT SNOW  24  23  96 N20G33    29.77R WCI   9
DENISON        HVY RAIN  27  25  93 N21G32    29.68R WCI  13
ESTHERVILLE    CLOUDY    22  20  92 N30       29.75R FOG     WCI   4
LE MARS        MIX PCPN  25  23  93 N22G32    29.83R VSB 3/4 WCI  10
SHELDON        MIX PCPN  23  23 100 N24G38    29.80R VSB 1   WCI   7
SIOUX CITY     FOG       27  23  85 N30G39    29.80R VSB 1/2 WCI  11
SPENCER        CLOUDY    23  19  85 N30G38    29.76R FOG     WCI   5
STORM LAKE     LGT SNOW  23  21  93 N35G47    29.72R WCI   4
$$

ABBREVIATIONS USED IN REMARKS
   TC - TEMPERATURE IN CELSIUS
  WCI - WIND CHILL INDEX
   HX - HEAT INDEX
  VSB - VISIBILITY




USA.gov is the U.S. government's official web portal to all federal, state and local government web resources and services.